ROBUSTA-3A (MEDITERRAN*)

Last updated on Mon Sep 07 2026 00:03:44 GMT+0000 (Coordinated Universal Time)

1 60243U 24128J 26249.60212113 .00002923 00000+0 17767-3 0 9997 2 60243 61.9853 280.1168 0029770 144.4102 215.8987 15.12645639118738
UTC large
Height (km)
Speed (km/s)
/
Latitude / Longitude
Inclination (degrees)
Orbital Period (minutes)
Azimuth
Elevation
Range (km)
Doppler Factor

Next 0 passes for location: London (51.5072 / 0.1276)

No passes found over London.
ROBUSTA-3A (MEDITERRAN*)